Location: Del Amo
(33.8464°N, 118.2104°W)
Time: 15:57:15
(UTC+00:00)

Tiros 1 despin weight - Pass Details

Date: 16 September 2024
Orbit: 573 x 615 km, 48.2° (Epoch: 04 October)

Event Time Altitude Azimuth Distance (km) Brightness Sun altitude
Exits shadow 11:59:20 16° 325° (NW) 1,597 ? -20.8°
Maximum altitude 12:00:28 18° 343° (NNW) 1,531 ? -20.5°
Drops below altitude 10° 12:03:36 10° 27° (NNE) 1,983 ? -19.9°
Sets 12:06:35 0° 46° (NE) 2,890 ? -19.3°
